Showing default

KANOPUS-V-IK, 42825

Orbit data source: Space-Track

KANOPUS-V-IK, 42825 is a payload satellite owned by VNIIEM (CIS) in SSO that was launched on Fri, 14 Jul 2017 UTC via a SOYUZ-2-1A launch vehicle from the Tyuratam Missile And Space Complex (TTMTR). Payload-class satellites include a variety of spacecraft equipped with specific instruments for various scientific and technological missions. These include communications satellites like Starlink; space stations such as the ISS; scientific satellites like the Hubble; Earth observation satellites from companies like Planet Labs, Umbra, and HawkEye 360; GPS; miniature CubeSats for education and research; and military/defense satellites.

Loading next visibility...
Identifier
42825, 2017-042A
Orbit
SSO
Country
Flag of CISCIS
Related business
Manufacturer
VNIIEM
Mission
Operational Civil Imaging
Bus & Motor
KANOPUS, Unknown motor
Mass
550 kg wet, 550 kg dry
Launch date (UTC)
2017-07-14 (9 years ago)
Launch vehicle
SOYUZ-2-1A
Launch site
Tyuratam Missile And Space Complex (TTMTR)
Object type
Payload
Rocket body
Debris
Shape & HBR
Box + 2 Pan, 3.0 m
Radar Cross Section
1.665 m², Large (>1 m²)

Expand to show TLE details & history
Last TLE update: 2 days ago

TLE from 2 days ago
0 KANOPUS-V-IK
1 42825U 17042A   26072.68057308  .00000026  00000-0  40187-5 0  9992
2 42825  97.3642 340.1356 0001584  92.5482 267.5936 15.22754015480837
Epoch: 2026-03-13T16:20Z
TLE epoch observation values (Epoch: 2026-03-13T16:20:01.514Z)
Latitude
-0.00001°
Longitude
-76.18333°
Altitude
500.679 km
Speed
7.614 km/s
True Right ascension
22h 40m 32s
True Declination
0° 00' 00"
Sunlit
Object was in daylight at epoch
Visualization orbit readout
Latitude
Unknown
Longitude
Unknown
Altitude
Unknown
Speed
Unknown
Apparent Right ascension
Unknown
Apparent Declination
Unknown
Sunlit
N/A
Visualization observer readout
Local Sidereal Time
03:29:47
Azimuth
Unknown
Elevation
Unknown
Doppler factor
Unknown
Orbital elements
Apogee altitude
495.587 km
Perigee altitude
493.41 km
Semi-major axis
6,872.635 km
Eccentricity
0.00016
Inclination
97.3642°
RAAN
340.1356°
Arg. of periapsis
92.5482°
True anomaly
267.57546°
Mean anomaly
267.5936°
Eccentric anomaly
267.58453°
Mean motion
3.80941 °/min
Orbital period
94.5 mins
BSTAR
0.0000040187
Loading maneuver chart data...
Computing Atmospheric mass density...
Loading historical data...
Loading historical data...
Loading historical data...
Loading historical data...
Loading historical data...
Loading historical data...
Loading historical data...

Documentation

Showing up to 5 results
|